Powrót do katalogu

STARLINK-34084

AktywnyŁącznośćVLEO
NORAD 63970·PAYLOAD·🇺🇸 United States

Wystrzelony May 13, 2025 z Cape Canaveral Space Force Station

Loading…

Następne Przeloty (najbliższe 24 godziny)

TLE

ŚwieżeSource: CelesTrak SupGP

Epoka: Sep 14, 2026, 20:56 UTC

1 63970C 25099U   26257.87270833  .00001163  00000+0  42128-4 0  2578
2 63970  43.0028 187.3869 0001409 262.5091 120.7487 15.27580592    19

Śledź STARLINK-34084 w czasie rzeczywistym z AllMySat

Download on the App Store